DW4063 Weather Reports


Display with metric or nautical units.
time (UTC)temp
F
wind
direction
speed
MPH
gust
MPH
rain 1hr
in
rain 24hr
in
rain mn
in
humidity
%
barometer
mb
20260502191521 54 336 2.0 8.0 0.00 0.00 0.00 38 1019.0
20260502190014 54 223 1.0 7.0 0.00 0.00 0.00 41 1019.2
20260502183025 53 319 4.0 11.0 0.00 0.00 0.00 40 1019.6
20260502181528 52 104 2.0 10.0 0.00 0.00 0.00 44 1019.7
20260502163044 51 329 3.0 11.0 0.00 0.00 0.00 45 1020.4
20260502161521 50 225 3.0 9.0 0.00 0.00 0.00 43 1020.5
20260502151526 48 5 1.0 4.0 0.00 0.00 0.00 48 1020.8
20260502123026 34 113 0.0 0.0 0.00 0.00 0.00 94 1020.6
20260502121512 32 113 0.0 0.0 0.00 0.00 0.00 94 1020.6
20260502114507 29 113 0.0 0.0 0.00 0.00 0.00 93 1020.3
20260502113018 29 113 0.0 0.0 0.00 0.00 0.00 93 1020.2
20260502111515 28 113 0.0 0.0 0.00 0.00 0.00 93 1020.1
20260502110011 28 113 0.0 0.0 0.00 0.00 0.00 93 1020.0
20260502104507 28 113 0.0 0.0 0.00 0.00 0.00 92 1020.0
20260502103024 28 113 0.0 0.0 0.00 0.00 0.00 92 1019.9
20260502101522 29 113 0.0 0.0 0.00 0.00 0.00 92 1019.9
20260502091504 29 113 0.0 0.0 0.00 0.00 0.00 92 1019.9
20260502071506 30 113 0.0 0.0 0.00 0.01 0.00 91 1019.9
20260502070006 30 113 0.0 0.0 0.00 0.01 0.00 91 1020.0
20260502064503 30 113 0.0 0.0 0.00 0.01 0.00 91 1020.1
20260502063007 30 113 0.0 0.0 0.00 0.01 0.00 90 1020.2
20260502061505 30 113 0.0 0.0 0.00 0.01 0.00 90 1020.3
20260502060007 31 113 0.0 0.0 0.00 0.01 0.00 90 1020.4
20260502054509 31 113 0.0 0.0 0.00 0.01 0.00 89 1020.5
20260502053004 31 113 0.0 0.0 0.00 0.01 0.00 89 1020.5
20260502051512 31 113 0.0 0.0 0.00 0.01 0.00 89 1020.5
20260502044504 32 113 0.0 0.0 0.00 0.02 0.01 88 1020.6
20260502043008 33 113 0.0 0.0 0.00 0.03 0.01 87 1020.5
20260502041509 33 113 0.0 0.0 0.00 0.03 0.01 86 1020.3
20260502040009 34 113 0.0 0.0 0.00 0.03 0.01 85 1020.3
20260502034509 34 113 0.0 0.0 0.00 0.03 0.01 85 1020.2
20260502033013 35 113 0.0 0.0 0.00 0.03 0.01 83 1020.1
20260502031508 36 113 0.0 0.0 0.00 0.03 0.01 81 1020.1
20260502030010 36 113 0.0 0.0 0.00 0.03 0.01 80 1020.0
20260502024515 37 113 0.0 0.0 0.00 0.04 0.01 79 1020.0
20260502023011 37 113 0.0 2.0 0.00 0.04 0.01 77 1019.8
20260502021512 38 120 0.0 3.0 0.00 0.06 0.01 76 1019.7
20260502020012 38 61 1.0 6.0 0.00 0.10 0.01 74 1019.6
20260502014528 39 71 1.0 4.0 0.00 0.14 0.01 73 1019.4
20260502013015 39 58 1.0 2.0 0.00 0.16 0.01 71 1018.9
20260502011516 40 89 2.0 4.0 0.00 0.18 0.01 71 1018.8
20260502010014 41 107 0.0 3.0 0.00 0.19 0.01 71 1018.6
20260502004514 42 130 2.0 6.0 0.00 0.19 0.01 71 1018.4
20260502003014 43 55 1.0 4.0 0.00 0.19 0.01 69 1018.3
20260502000024 45 60 0.0 3.0 0.00 0.20 0.01 70 1018.0
20260501234507 45 89 1.0 4.0 0.00 0.21 0.01 69 1018.0
20260501233003 45 103 2.0 6.0 0.00 0.21 0.01 68 1017.9
20260501231510 46 61 1.0 4.0 0.00 0.24 0.01 70 1018.0
20260501230017 46 84 0.0 3.0 0.00 0.24 0.01 70 1018.1
20260501224511 46 64 1.0 4.0 0.00 0.26 0.01 69 1018.2
20260501223010 46 36 1.0 4.0 0.00 0.26 0.01 68 1018.2
20260501221517 46 15 0.0 6.0 0.00 0.27 0.01 68 1018.1
20260501220006 46 83 1.0 4.0 0.00 0.28 0.01 66 1018.1
20260501214504 46 74 1.0 4.0 0.00 0.30 0.01 66 1018.1
20260501213017 47 63 2.0 5.0 0.00 0.31 0.01 64 1018.0
20260501211515 47 84 4.0 8.0 0.00 0.32 0.01 63 1018.0
20260501210013 48 174 1.0 4.0 0.00 0.32 0.01 58 1017.9
20260501204508 49 263 0.0 10.0 0.00 0.32 0.01 55 1018.0
20260501203006 48 304 0.0 9.0 0.00 0.32 0.01 54 1017.9
20260501201504 49 22 0.0 3.0 0.00 0.32 0.01 56 1017.9
20260501200021 49 329 0.0 5.0 0.00 0.32 0.01 53 1017.9